Weather in Leeton

Australia     34°33′02″S   146°24′18″E
temp.,
°C
wind,
m/s
gust,
m/s
humid.,
%
clouds,
%
prec.,
mm/h
press.,
hPa
HPBL,
m
26 october, tue
tue2623:00+9s35580 0.0 101970
02:00+6ssw11740 0.0 101910
05:00+5sw11740 0.0 101910
08:00+10wsw11490 0.0 1021173
11:00+18wsw34270 0.0 10201206
14:00+23wsw33160 0.0 10171799
17:00+25wsw34130 0.0 10152077
20:00+16sw33233 0.0 101734
27 october, wed
wed2723:00+12sse1130100 0.0 101810
02:00+11ese11325 0.0 101710
05:00+9ene224112 0.0 101610
08:00+15ne36375 0.0 1017187
11:00+25n45155 0.0 10161509
14:00+30nw441027 0.0 10142153
17:00+30nw459100 0.0 10112480
20:00+22nne1116100 0.0 101211
28 october, thu
thu2823:00+21e2217100 0.0 101214
02:00+18ne36215 0.0 101170
05:00+16ne32255 0.0 101024
08:00+21nne492182 0.0 1011227
11:00+29n6813100 0.0 1010695
14:00+28w4723100 0.0 10091795
17:00+29nne56240 0.0 10051750
20:00+22nne3344100 0.1 100640
29 october, fri
fri2923:00+17ne61389100 1.3 1006488
02:00+16nne4147534 0.0 1004291
05:00+16n39860 0.2 1002193
08:00+18nw61282100 0.6 1004839
11:00+24wnw915240 0.7 10051907
14:00+25w1115260 0.0 10052280
17:00+21wsw1112315 0.0 10062184
20:00+14sw711490 0.0 10111051
30 october, sat
sat3023:00+10sw511590 0.0 1014621
02:00+7sw22723 0.0 101628
05:00+5sw27820 0.0 1018149
08:00+8sw58560 0.0 1020593
11:00+14sw68270 0.0 10201686
14:00+18sw67200 0.0 10172168
17:00+19sw67192 0.0 10162620
20:00+13sw35285 0.0 101982